EIN627 ENGM-EIDW

Flight info

Callsign EIN627
Flight time 2h 2m
Altitude 38000
Route ATLAP DCT ALOTI DCT NELBO DCT NIMAT NIMAT4L
Aircraft A320/M-SDE3FGHIRWY/LB1

Departure

Time 2026-05-06 12:36
Airport Oslo-Gardermoen International Airport (ENGM)

Arrival

Time 2026-05-06 14:38
Airport Dublin Airport (EIDW)
Time Latitude Longitude Altitude Speed Heading
2026-05-06 12:08 60.19641 11.10206 687 ft 0 kts 285°
2026-05-06 12:25 60.19637 11.10233 687 ft 2 kts 285°
2026-05-06 12:25 60.19633 11.10261 687 ft 2 kts 285°
2026-05-06 12:25 60.19629 11.10290 687 ft 2 kts 285°
2026-05-06 12:26 60.19627 11.10302 687 ft 0 kts 285°
2026-05-06 12:27 60.19628 11.10298 687 ft 1 kts 301°
2026-05-06 12:28 60.19648 11.10308 687 ft 5 kts 47°
2026-05-06 12:28 60.19667 11.10407 687 ft 9 kts 70°
2026-05-06 12:28 60.19725 11.10482 687 ft 11 kts 18°
2026-05-06 12:28 60.19812 11.10531 687 ft 14 kts 16°
2026-05-06 12:29 60.19914 11.10593 687 ft 16 kts 13°
2026-05-06 12:29 60.19985 11.10450 687 ft 16 kts 286°
2026-05-06 12:29 60.20015 11.10231 687 ft 15 kts 285°
2026-05-06 12:29 60.20045 11.10025 687 ft 15 kts 286°
2026-05-06 12:30 60.20073 11.09827 687 ft 14 kts 286°
2026-05-06 12:30 60.20102 11.09625 687 ft 15 kts 285°
2026-05-06 12:30 60.20132 11.09413 687 ft 16 kts 286°
2026-05-06 12:30 60.20164 11.09194 687 ft 16 kts 286°
2026-05-06 12:31 60.20195 11.08987 687 ft 12 kts 292°
2026-05-06 12:31 60.20275 11.08962 687 ft 13 kts 16°
2026-05-06 12:31 60.20368 11.09015 687 ft 14 kts 16°
2026-05-06 12:31 60.20467 11.09071 687 ft 15 kts 15°
2026-05-06 12:32 60.20571 11.09131 687 ft 15 kts 16°
2026-05-06 12:32 60.20679 11.09191 687 ft 16 kts 14°
2026-05-06 12:32 60.20790 11.09254 687 ft 17 kts 17°
2026-05-06 12:32 60.20906 11.09323 687 ft 17 kts 16°
2026-05-06 12:33 60.21025 11.09390 687 ft 17 kts 14°
2026-05-06 12:33 60.21148 11.09453 687 ft 18 kts 17°
2026-05-06 12:33 60.21269 11.09531 687 ft 18 kts 17°
2026-05-06 12:33 60.21386 11.09601 687 ft 16 kts 15°
2026-05-06 12:34 60.21500 11.09617 687 ft 16 kts 339°
2026-05-06 12:34 60.21558 11.09427 687 ft 17 kts 286°
2026-05-06 12:34 60.21567 11.09194 687 ft 17 kts 244°
2026-05-06 12:34 60.21465 11.09083 687 ft 17 kts 197°
2026-05-06 12:35 60.21338 11.09009 687 ft 21 kts 196°
2026-05-06 12:35 60.21127 11.08887 687 ft 56 kts 196°
2026-05-06 12:35 60.20507 11.08530 688 ft 126 kts 196°
2026-05-06 12:35 60.19500 11.07926 847 ft 166 kts 198°
2026-05-06 12:36 60.18357 11.07208 1302 ft 181 kts 199°
2026-05-06 12:36 60.17134 11.06439 1906 ft 189 kts 198°
2026-05-06 12:36 60.15865 11.05672 2561 ft 192 kts 199°
2026-05-06 12:36 60.14702 11.04320 3018 ft 204 kts 230°
2026-05-06 12:37 60.14084 11.01655 3376 ft 224 kts 264°
2026-05-06 12:37 60.13998 10.98419 3893 ft 240 kts 266°
2026-05-06 12:37 60.13843 10.94996 4503 ft 252 kts 265°
2026-05-06 12:37 60.13786 10.91515 5341 ft 254 kts 269°
2026-05-06 12:38 60.13768 10.87985 6171 ft 257 kts 268°
2026-05-06 12:38 60.13714 10.84356 6958 ft 262 kts 266°
2026-05-06 12:38 60.13624 10.80747 7828 ft 263 kts 265°
2026-05-06 12:38 60.13512 10.77107 8654 ft 266 kts 265°
2026-05-06 12:39 60.13391 10.73429 9473 ft 269 kts 265°
2026-05-06 12:39 60.13265 10.69721 10275 ft 273 kts 266°
2026-05-06 12:39 60.13441 10.65845 10811 ft 290 kts 288°
2026-05-06 12:39 60.14501 10.62344 11438 ft 302 kts 313°
2026-05-06 12:40 60.16208 10.59978 12219 ft 306 kts 332°
2026-05-06 12:40 60.18110 10.58118 12992 ft 309 kts 332°
2026-05-06 12:40 60.20052 10.56208 13767 ft 312 kts 331°
2026-05-06 12:40 60.21972 10.54267 14532 ft 313 kts 327°
2026-05-06 12:41 60.23616 10.51464 15273 ft 308 kts 303°
2026-05-06 12:41 60.24540 10.47729 16006 ft 303 kts 284°
2026-05-06 12:41 60.25111 10.43643 16728 ft 303 kts 283°
2026-05-06 12:41 60.25668 10.39611 17443 ft 303 kts 283°
2026-05-06 12:42 60.26241 10.35504 18203 ft 303 kts 283°
2026-05-06 12:42 60.26815 10.31428 18940 ft 303 kts 282°
2026-05-06 12:42 60.27398 10.27308 19653 ft 304 kts 282°
2026-05-06 12:42 60.27972 10.23268 20323 ft 303 kts 281°
2026-05-06 12:43 60.28548 10.19175 20975 ft 304 kts 281°
2026-05-06 12:43 60.28844 10.15000 21607 ft 300 kts 264°
2026-05-06 12:43 60.28410 10.10974 22209 ft 299 kts 248°
2026-05-06 12:43 60.27320 10.07353 22781 ft 304 kts 232°
2026-05-06 12:44 60.25893 10.04261 23345 ft 305 kts 231°
2026-05-06 12:44 60.24456 10.01134 23899 ft 306 kts 230°
2026-05-06 12:44 60.22999 9.97982 24434 ft 307 kts 230°
2026-05-06 12:44 60.21538 9.94848 24952 ft 308 kts 230°
2026-05-06 12:45 60.20085 9.91752 25453 ft 309 kts 230°
2026-05-06 12:45 60.18604 9.88607 25954 ft 310 kts 230°
2026-05-06 12:45 60.15665 9.82204 26921 ft 311 kts 232°
2026-05-06 12:46 60.14310 9.78774 27389 ft 312 kts 235°
2026-05-06 12:46 60.13071 9.75225 27841 ft 312 kts 238°
2026-05-06 12:46 60.11901 9.71548 28273 ft 314 kts 238°
2026-05-06 12:46 60.10716 9.67846 28683 ft 315 kts 238°
2026-05-06 12:47 60.09531 9.64145 29055 ft 317 kts 238°
2026-05-06 12:47 60.08340 9.60423 29433 ft 319 kts 238°
2026-05-06 12:47 60.07147 9.56694 29800 ft 320 kts 238°
2026-05-06 12:47 60.05942 9.52933 30166 ft 322 kts 238°
2026-05-06 12:48 60.04740 9.49182 30538 ft 323 kts 238°
2026-05-06 12:48 60.03540 9.45443 30900 ft 325 kts 237°
2026-05-06 12:48 60.02305 9.41600 31233 ft 326 kts 237°
2026-05-06 12:48 60.01078 9.37787 31545 ft 328 kts 237°
2026-05-06 12:49 59.99843 9.33955 31849 ft 330 kts 237°
2026-05-06 12:49 59.98603 9.30115 32157 ft 331 kts 237°
2026-05-06 12:49 59.97347 9.26228 32429 ft 333 kts 237°
2026-05-06 12:49 59.96089 9.22342 32669 ft 336 kts 237°
2026-05-06 12:50 59.94828 9.18453 32891 ft 339 kts 237°
2026-05-06 12:50 59.93538 9.14481 33110 ft 342 kts 237°
2026-05-06 12:50 59.92238 9.10485 33305 ft 345 kts 237°
2026-05-06 12:50 59.90939 9.06498 33488 ft 347 kts 237°
2026-05-06 12:51 59.89617 9.02449 33665 ft 351 kts 237°
2026-05-06 12:51 59.88292 8.98399 33849 ft 353 kts 237°
2026-05-06 12:51 59.86942 8.94275 34032 ft 356 kts 237°
2026-05-06 12:51 59.85594 8.90165 34219 ft 358 kts 237°
2026-05-06 12:52 59.84220 8.85986 34405 ft 360 kts 237°
2026-05-06 12:52 59.82859 8.81851 34585 ft 362 kts 237°
2026-05-06 12:52 59.81487 8.77692 34755 ft 364 kts 237°
2026-05-06 12:52 59.80091 8.73466 34915 ft 367 kts 237°
2026-05-06 12:53 59.78691 8.69237 35055 ft 370 kts 237°
2026-05-06 12:53 59.77283 8.64992 35185 ft 372 kts 237°
2026-05-06 12:53 59.75843 8.60659 35301 ft 373 kts 238°
2026-05-06 12:53 59.74416 8.56368 35410 ft 374 kts 238°
2026-05-06 12:54 59.72995 8.52108 35486 ft 376 kts 238°
2026-05-06 12:54 59.70078 8.43381 35631 ft 380 kts 238°
2026-05-06 12:55 59.67162 8.34691 35805 ft 382 kts 237°
2026-05-06 12:55 59.64217 8.25955 36007 ft 383 kts 237°
2026-05-06 12:55 59.62730 8.21555 36115 ft 384 kts 237°
2026-05-06 12:56 59.61243 8.17161 36219 ft 384 kts 237°
2026-05-06 12:56 59.59759 8.12781 36326 ft 385 kts 237°
2026-05-06 12:56 59.58272 8.08400 36422 ft 387 kts 237°
2026-05-06 12:57 59.55281 7.99611 36571 ft 390 kts 237°
2026-05-06 12:57 59.52251 7.90750 36729 ft 392 kts 237°
2026-05-06 12:58 59.49186 7.81824 36906 ft 394 kts 237°
2026-05-06 12:58 59.46100 7.72867 37072 ft 397 kts 237°
2026-05-06 12:59 59.42982 7.63851 37180 ft 400 kts 237°
2026-05-06 12:59 59.39848 7.54826 37167 ft 403 kts 236°
2026-05-06 13:00 59.36691 7.45771 37120 ft 404 kts 236°
2026-05-06 13:00 59.33499 7.36648 37105 ft 404 kts 236°
2026-05-06 13:01 59.30320 7.27601 37081 ft 404 kts 236°
2026-05-06 13:01 59.27117 7.18517 37048 ft 404 kts 236°
2026-05-06 13:02 59.23931 7.09515 37039 ft 404 kts 236°
2026-05-06 13:02 59.20739 7.00532 37040 ft 404 kts 236°
2026-05-06 13:03 59.17553 6.91602 37057 ft 403 kts 236°
2026-05-06 13:03 59.14336 6.82617 37087 ft 403 kts 236°
2026-05-06 13:04 59.11139 6.73726 37115 ft 403 kts 236°
2026-05-06 13:04 59.07934 6.64844 37147 ft 403 kts 236°
2026-05-06 13:05 59.04714 6.55954 37204 ft 403 kts 236°
2026-05-06 13:05 59.01501 6.47117 37306 ft 403 kts 236°
2026-05-06 13:05 58.99883 6.42675 37489 ft 400 kts 236°
2026-05-06 13:06 58.98282 6.38291 37700 ft 397 kts 236°
2026-05-06 13:06 58.96694 6.33952 37857 ft 396 kts 235°
2026-05-06 13:06 58.95112 6.29636 37928 ft 397 kts 235°
2026-05-06 13:07 58.91890 6.20866 37986 ft 402 kts 235°
2026-05-06 13:07 58.88630 6.12031 38015 ft 407 kts 235°
2026-05-06 13:08 58.85333 6.03129 38027 ft 408 kts 235°
2026-05-06 13:08 58.82048 5.94293 38032 ft 409 kts 235°
2026-05-06 13:09 58.78711 5.85349 38030 ft 409 kts 235°
2026-05-06 13:09 58.75378 5.76451 38031 ft 410 kts 235°
2026-05-06 13:10 58.71991 5.67445 38037 ft 410 kts 235°
2026-05-06 13:10 58.68663 5.58629 38042 ft 409 kts 235°
2026-05-06 13:11 58.65320 5.49805 38046 ft 409 kts 235°
2026-05-06 13:11 58.61972 5.40999 38046 ft 409 kts 235°
2026-05-06 13:12 58.58617 5.32207 38046 ft 410 kts 234°
2026-05-06 13:12 58.55247 5.23410 38044 ft 410 kts 234°
2026-05-06 13:13 58.51871 5.14625 38043 ft 410 kts 234°
2026-05-06 13:13 58.48511 5.05916 38043 ft 410 kts 234°
2026-05-06 13:14 58.45135 4.97198 38040 ft 410 kts 234°
2026-05-06 13:14 58.41740 4.88461 38040 ft 411 kts 234°
2026-05-06 13:15 58.38270 4.79566 38040 ft 411 kts 234°
2026-05-06 13:15 58.34790 4.70676 38042 ft 411 kts 234°
2026-05-06 13:16 58.31356 4.61938 38041 ft 411 kts 234°
2026-05-06 13:16 58.27929 4.53249 38043 ft 411 kts 234°
2026-05-06 13:17 58.24515 4.44624 38046 ft 411 kts 234°
2026-05-06 13:17 58.21084 4.35986 38050 ft 411 kts 234°
2026-05-06 13:18 58.17638 4.27348 38051 ft 412 kts 233°
2026-05-06 13:18 58.14171 4.18681 38053 ft 412 kts 233°
2026-05-06 13:19 58.10732 4.10108 38064 ft 412 kts 233°
2026-05-06 13:19 58.07268 4.01506 38071 ft 412 kts 233°
2026-05-06 13:20 58.03817 3.92967 38072 ft 412 kts 233°
2026-05-06 13:20 58.00349 3.84418 38069 ft 411 kts 233°
2026-05-06 13:21 57.96869 3.75869 38067 ft 411 kts 233°
2026-05-06 13:21 57.93386 3.67355 38068 ft 411 kts 233°
2026-05-06 13:22 57.90047 3.58589 38069 ft 411 kts 238°
2026-05-06 13:22 57.86946 3.48955 38072 ft 411 kts 239°
2026-05-06 13:23 57.83767 3.39032 38072 ft 411 kts 240°
2026-05-06 13:23 57.80650 3.29327 38074 ft 412 kts 239°
2026-05-06 13:24 57.77462 3.19425 38075 ft 411 kts 239°
2026-05-06 13:24 57.74247 3.09482 38074 ft 411 kts 239°
2026-05-06 13:25 57.71023 2.99549 38073 ft 412 kts 239°
2026-05-06 13:25 57.67775 2.89579 38072 ft 412 kts 239°
2026-05-06 13:26 57.64487 2.79537 38070 ft 412 kts 239°
2026-05-06 13:26 57.61124 2.69308 38070 ft 412 kts 239°
2026-05-06 13:27 57.57848 2.59380 38070 ft 412 kts 239°
2026-05-06 13:27 57.54755 2.50051 38068 ft 412 kts 239°
2026-05-06 13:28 57.51656 2.40736 38066 ft 412 kts 239°
2026-05-06 13:28 57.48612 2.31619 38065 ft 413 kts 239°
2026-05-06 13:29 57.45526 2.22414 38065 ft 413 kts 239°
2026-05-06 13:29 57.42474 2.13346 38065 ft 413 kts 239°
2026-05-06 13:30 57.39407 2.04265 38066 ft 413 kts 239°
2026-05-06 13:30 57.36343 1.95231 38068 ft 413 kts 239°
2026-05-06 13:31 57.33205 1.86014 38067 ft 413 kts 239°
2026-05-06 13:31 57.30026 1.76717 38066 ft 413 kts 239°
2026-05-06 13:32 57.26854 1.67471 38071 ft 414 kts 239°
2026-05-06 13:32 57.23720 1.58365 38073 ft 414 kts 239°
2026-05-06 13:33 57.20633 1.49429 38074 ft 414 kts 239°
2026-05-06 13:33 57.17542 1.40521 38074 ft 414 kts 239°
2026-05-06 13:34 57.14436 1.31605 38074 ft 415 kts 238°
2026-05-06 13:34 57.11328 1.22714 38073 ft 415 kts 238°
2026-05-06 13:35 57.08210 1.13823 38072 ft 415 kts 238°
2026-05-06 13:35 57.05093 1.04984 38072 ft 415 kts 238°
2026-05-06 13:36 57.01965 0.96142 38071 ft 415 kts 238°
2026-05-06 13:36 56.98806 0.87242 38071 ft 415 kts 238°
2026-05-06 13:37 56.95628 0.78322 38070 ft 416 kts 238°
2026-05-06 13:37 56.92397 0.69284 38070 ft 416 kts 238°
2026-05-06 13:38 56.89222 0.60434 38071 ft 417 kts 238°
2026-05-06 13:38 56.86014 0.51525 38071 ft 417 kts 238°
2026-05-06 13:39 56.82788 0.42595 38071 ft 418 kts 238°
2026-05-06 13:39 56.79567 0.33713 38072 ft 418 kts 237°
2026-05-06 13:40 56.76331 0.24827 38074 ft 418 kts 237°
2026-05-06 13:40 56.73085 0.15942 38074 ft 419 kts 237°
2026-05-06 13:41 56.69843 0.07102 38075 ft 419 kts 237°
2026-05-06 13:41 56.66585 -0.01749 38076 ft 419 kts 237°
2026-05-06 13:42 56.63242 -0.10791 38059 ft 420 kts 237°
2026-05-06 13:42 56.59946 -0.19671 38056 ft 420 kts 238°
2026-05-06 13:43 56.56544 -0.28813 38069 ft 420 kts 238°
2026-05-06 13:43 56.53100 -0.38034 38072 ft 420 kts 238°
2026-05-06 13:44 56.49646 -0.47247 38075 ft 421 kts 238°
2026-05-06 13:44 56.46193 -0.56420 38076 ft 421 kts 238°
2026-05-06 13:45 56.42766 -0.65489 38078 ft 421 kts 237°
2026-05-06 13:45 56.37706 -0.78815 38078 ft 421 kts 237°
2026-05-06 13:46 56.34279 -0.87801 38079 ft 421 kts 237°
2026-05-06 13:46 56.30922 -0.96572 38080 ft 422 kts 237°
2026-05-06 13:47 56.27564 -1.05313 38081 ft 422 kts 237°
2026-05-06 13:47 56.24172 -1.14111 38082 ft 422 kts 237°
2026-05-06 13:48 56.20699 -1.23086 38082 ft 423 kts 237°
2026-05-06 13:48 56.17322 -1.31782 38082 ft 423 kts 237°
2026-05-06 13:49 56.13937 -1.40471 38082 ft 423 kts 237°
2026-05-06 13:49 56.10543 -1.49152 38081 ft 424 kts 237°
2026-05-06 13:50 56.07147 -1.57806 38080 ft 424 kts 237°
2026-05-06 13:50 56.03762 -1.66397 38080 ft 424 kts 236°
2026-05-06 13:51 56.00339 -1.75056 38081 ft 424 kts 236°
2026-05-06 13:51 55.96945 -1.83612 38081 ft 424 kts 236°
2026-05-06 13:52 55.93516 -1.92224 38080 ft 425 kts 236°
2026-05-06 13:52 55.90082 -2.00819 38078 ft 425 kts 236°
2026-05-06 13:53 55.86721 -2.09201 38076 ft 425 kts 236°
2026-05-06 13:53 55.83275 -2.17764 38072 ft 425 kts 236°
2026-05-06 13:54 55.79847 -2.26256 38070 ft 425 kts 236°
2026-05-06 13:54 55.76391 -2.34789 38070 ft 425 kts 236°
2026-05-06 13:55 55.72932 -2.43294 38073 ft 425 kts 236°
2026-05-06 13:55 55.69470 -2.51784 38076 ft 425 kts 236°
2026-05-06 13:56 55.66020 -2.60211 38076 ft 425 kts 236°
2026-05-06 13:56 55.62544 -2.68675 38076 ft 426 kts 235°
2026-05-06 13:57 55.59050 -2.77155 38076 ft 426 kts 235°
2026-05-06 13:57 55.55571 -2.85568 38072 ft 427 kts 235°
2026-05-06 13:58 55.52408 -2.93191 38080 ft 427 kts 235°
2026-05-06 13:58 55.48878 -3.01669 38073 ft 427 kts 235°
2026-05-06 13:59 55.45363 -3.10081 38069 ft 427 kts 235°
2026-05-06 13:59 55.41829 -3.18513 38065 ft 428 kts 235°
2026-05-06 14:00 55.38296 -3.26912 38060 ft 428 kts 235°
2026-05-06 14:00 55.34755 -3.35301 38057 ft 428 kts 235°
2026-05-06 14:01 55.31199 -3.43698 38056 ft 428 kts 235°
2026-05-06 14:01 55.27593 -3.52185 38056 ft 429 kts 235°
2026-05-06 14:02 55.24018 -3.60579 38055 ft 429 kts 235°
2026-05-06 14:02 55.20405 -3.69028 38054 ft 429 kts 234°
2026-05-06 14:03 55.16798 -3.77432 38053 ft 429 kts 234°
2026-05-06 14:03 55.13204 -3.85774 38051 ft 429 kts 234°
2026-05-06 14:04 55.09583 -3.94153 38050 ft 429 kts 234°
2026-05-06 14:04 55.05980 -4.02460 38048 ft 429 kts 234°
2026-05-06 14:05 55.02330 -4.10847 38044 ft 429 kts 234°
2026-05-06 14:05 54.98695 -4.19169 38042 ft 430 kts 234°
2026-05-06 14:06 54.95066 -4.27448 38040 ft 431 kts 234°
2026-05-06 14:06 54.91435 -4.35708 38040 ft 431 kts 234°
2026-05-06 14:07 54.87853 -4.43829 38042 ft 431 kts 234°
2026-05-06 14:07 54.84183 -4.52127 38043 ft 432 kts 234°
2026-05-06 14:08 54.80533 -4.60349 38043 ft 432 kts 234°
2026-05-06 14:08 54.78695 -4.64481 37932 ft 433 kts 234°
2026-05-06 14:08 54.76960 -4.68372 37458 ft 435 kts 234°
2026-05-06 14:09 54.75118 -4.72498 36868 ft 436 kts 234°
2026-05-06 14:09 54.73266 -4.76637 36223 ft 439 kts 234°
2026-05-06 14:09 54.71396 -4.80812 35572 ft 442 kts 234°
2026-05-06 14:09 54.69521 -4.84988 34994 ft 442 kts 234°
2026-05-06 14:10 54.67674 -4.89094 34557 ft 440 kts 234°
2026-05-06 14:10 54.65795 -4.93267 34148 ft 440 kts 234°
2026-05-06 14:10 54.63930 -4.97398 33566 ft 436 kts 234°
2026-05-06 14:10 54.62096 -5.01457 33048 ft 431 kts 234°
2026-05-06 14:11 54.60251 -5.05537 32500 ft 427 kts 234°
2026-05-06 14:11 54.58429 -5.09555 32013 ft 422 kts 234°
2026-05-06 14:11 54.56653 -5.13469 31471 ft 415 kts 234°
2026-05-06 14:11 54.54880 -5.17367 30981 ft 408 kts 234°
2026-05-06 14:12 54.53155 -5.21152 30547 ft 401 kts 234°
2026-05-06 14:12 54.51429 -5.24925 30106 ft 394 kts 233°
2026-05-06 14:12 54.49573 -5.28322 29671 ft 391 kts 225°
2026-05-06 14:12 54.47448 -5.31227 29222 ft 388 kts 217°
2026-05-06 14:13 54.45159 -5.33547 28716 ft 388 kts 211°
2026-05-06 14:13 54.42759 -5.35605 28258 ft 383 kts 209°
2026-05-06 14:13 54.40387 -5.37589 27812 ft 378 kts 209°
2026-05-06 14:13 54.38040 -5.39549 27373 ft 373 kts 209°
2026-05-06 14:14 54.35733 -5.41480 26939 ft 368 kts 209°
2026-05-06 14:14 54.33449 -5.43395 26511 ft 363 kts 210°
2026-05-06 14:14 54.31201 -5.45281 26095 ft 359 kts 210°
2026-05-06 14:14 54.28991 -5.47136 25675 ft 355 kts 210°
2026-05-06 14:15 54.26767 -5.49001 25250 ft 351 kts 210°
2026-05-06 14:15 54.24588 -5.50826 24836 ft 347 kts 210°
2026-05-06 14:15 54.22465 -5.52603 24434 ft 343 kts 210°
2026-05-06 14:15 54.20308 -5.54405 24025 ft 340 kts 210°
2026-05-06 14:16 54.18212 -5.56156 23626 ft 337 kts 210°
2026-05-06 14:16 54.16122 -5.57899 23229 ft 334 kts 210°
2026-05-06 14:16 54.14043 -5.59632 22844 ft 332 kts 210°
2026-05-06 14:16 54.11990 -5.61341 22454 ft 330 kts 210°
2026-05-06 14:17 54.09923 -5.63060 22056 ft 328 kts 210°
2026-05-06 14:17 54.07893 -5.64747 21663 ft 326 kts 210°
2026-05-06 14:17 54.05954 -5.66357 21284 ft 324 kts 208°
2026-05-06 14:17 54.03930 -5.68036 20888 ft 323 kts 208°
2026-05-06 14:18 54.01919 -5.69701 20493 ft 322 kts 208°
2026-05-06 14:18 53.99907 -5.71366 20098 ft 320 kts 208°
2026-05-06 14:18 53.97916 -5.72938 19706 ft 320 kts 204°
2026-05-06 14:18 53.95784 -5.74007 19309 ft 321 kts 193°
2026-05-06 14:19 53.93543 -5.74454 18906 ft 323 kts 186°
2026-05-06 14:19 53.91331 -5.74624 18520 ft 322 kts 185°
2026-05-06 14:19 53.89185 -5.74752 18146 ft 320 kts 185°
2026-05-06 14:19 53.86971 -5.74887 17761 ft 319 kts 185°
2026-05-06 14:20 53.84757 -5.75029 17375 ft 318 kts 185°
2026-05-06 14:20 53.82568 -5.75177 16992 ft 317 kts 185°
2026-05-06 14:20 53.80354 -5.75330 16604 ft 315 kts 185°
2026-05-06 14:20 53.78182 -5.75483 16222 ft 314 kts 185°
2026-05-06 14:21 53.75986 -5.75636 15836 ft 313 kts 185°
2026-05-06 14:21 53.73816 -5.75788 15455 ft 312 kts 185°
2026-05-06 14:21 53.71676 -5.75936 15081 ft 311 kts 185°
2026-05-06 14:21 53.69506 -5.76087 14706 ft 309 kts 185°
2026-05-06 14:22 53.67399 -5.76317 14324 ft 306 kts 192°
2026-05-06 14:22 53.65489 -5.77672 13930 ft 298 kts 219°
2026-05-06 14:22 53.64143 -5.80256 13522 ft 293 kts 243°
2026-05-06 14:22 53.63509 -5.83475 13139 ft 289 kts 259°
2026-05-06 14:23 53.63100 -5.86759 12805 ft 287 kts 259°
2026-05-06 14:23 53.62685 -5.90053 12454 ft 285 kts 259°
2026-05-06 14:23 53.62267 -5.93286 12122 ft 283 kts 258°
2026-05-06 14:23 53.61843 -5.96511 11772 ft 283 kts 258°
2026-05-06 14:24 53.61416 -5.99726 11415 ft 282 kts 258°
2026-05-06 14:24 53.60990 -6.02902 11054 ft 281 kts 258°
2026-05-06 14:24 53.60553 -6.06140 10660 ft 280 kts 258°
2026-05-06 14:24 53.60125 -6.09304 10287 ft 279 kts 258°
2026-05-06 14:25 53.59702 -6.12436 10048 ft 271 kts 258°
2026-05-06 14:25 53.59291 -6.15470 9947 ft 259 kts 257°
2026-05-06 14:25 53.58894 -6.18399 9643 ft 257 kts 257°
2026-05-06 14:25 53.58497 -6.21319 9306 ft 256 kts 257°
2026-05-06 14:26 53.58098 -6.24246 8978 ft 255 kts 257°
2026-05-06 14:26 53.57704 -6.27121 8656 ft 254 kts 257°
2026-05-06 14:26 53.57308 -6.30008 8319 ft 253 kts 257°
2026-05-06 14:26 53.56916 -6.32864 8079 ft 246 kts 257°
2026-05-06 14:27 53.56720 -6.35660 7974 ft 235 kts 279°
2026-05-06 14:27 53.57361 -6.38086 7961 ft 231 kts 311°
2026-05-06 14:27 53.58639 -6.39695 7985 ft 230 kts 331°
2026-05-06 14:27 53.60051 -6.40929 7988 ft 230 kts 333°
2026-05-06 14:28 53.61475 -6.42164 7988 ft 230 kts 332°
2026-05-06 14:28 53.62898 -6.43426 7989 ft 230 kts 332°
2026-05-06 14:28 53.64291 -6.44749 7986 ft 229 kts 323°
2026-05-06 14:28 53.65370 -6.46650 7967 ft 230 kts 295°
2026-05-06 14:29 53.65663 -6.49362 7982 ft 241 kts 260°
2026-05-06 14:29 53.65066 -6.51977 7882 ft 237 kts 241°
2026-05-06 14:29 53.64282 -6.54399 7543 ft 239 kts 239°
2026-05-06 14:29 53.63389 -6.56759 7233 ft 239 kts 234°
2026-05-06 14:30 53.62352 -6.58947 6954 ft 238 kts 228°
2026-05-06 14:30 53.61199 -6.60884 6675 ft 236 kts 221°
2026-05-06 14:30 53.59911 -6.62610 6367 ft 235 kts 215°
2026-05-06 14:30 53.58548 -6.64051 6064 ft 234 kts 208°
2026-05-06 14:31 53.57079 -6.65247 5763 ft 232 kts 201°
2026-05-06 14:31 53.55568 -6.66152 5486 ft 230 kts 195°
2026-05-06 14:31 53.54036 -6.66770 5230 ft 227 kts 189°
2026-05-06 14:31 53.52476 -6.67118 4950 ft 226 kts 185°
2026-05-06 14:32 53.50919 -6.67351 4684 ft 224 kts 184°
2026-05-06 14:32 53.49370 -6.67575 4419 ft 223 kts 184°
2026-05-06 14:32 53.47828 -6.67734 4135 ft 220 kts 173°
2026-05-06 14:32 53.46470 -6.66801 4001 ft 211 kts 137°
2026-05-06 14:33 53.45700 -6.64782 3860 ft 205 kts 106°
2026-05-06 14:33 53.45482 -6.62449 3729 ft 198 kts 93°
2026-05-06 14:33 53.45441 -6.60207 3634 ft 189 kts 92°
2026-05-06 14:33 53.45389 -6.58048 3623 ft 176 kts 94°
2026-05-06 14:34 53.45311 -6.56071 3498 ft 166 kts 95°
2026-05-06 14:34 53.45219 -6.54220 3379 ft 154 kts 96°
2026-05-06 14:34 53.45119 -6.52471 3195 ft 147 kts 97°
2026-05-06 14:34 53.45021 -6.50804 2981 ft 141 kts 97°
2026-05-06 14:35 53.44926 -6.49214 2781 ft 136 kts 97°
2026-05-06 14:35 53.44832 -6.47636 2618 ft 133 kts 97°
2026-05-06 14:35 53.44741 -6.46109 2430 ft 132 kts 97°
2026-05-06 14:35 53.44650 -6.44567 2254 ft 135 kts 96°
2026-05-06 14:36 53.44557 -6.42972 2076 ft 140 kts 96°
2026-05-06 14:36 53.44463 -6.41310 1882 ft 146 kts 96°
2026-05-06 14:36 53.44364 -6.39568 1675 ft 153 kts 96°
2026-05-06 14:36 53.44266 -6.37820 1459 ft 148 kts 96°
2026-05-06 14:37 53.44171 -6.36133 1238 ft 142 kts 96°
2026-05-06 14:37 53.44080 -6.34516 1038 ft 135 kts 97°
2026-05-06 14:37 53.43994 -6.32989 864 ft 132 kts 97°
2026-05-06 14:37 53.43909 -6.31477 693 ft 129 kts 96°
2026-05-06 14:38 53.43825 -6.29978 521 ft 127 kts 96°
2026-05-06 14:38 53.43744 -6.28518 346 ft 125 kts 96°
2026-05-06 14:38 53.43666 -6.27102 252 ft 115 kts 96°
2026-05-06 14:38 53.43612 -6.26216 249 ft 46 kts 94°
2026-05-06 14:39 53.43564 -6.25812 250 ft 18 kts 140°
2026-05-06 14:39 53.43460 -6.25724 250 ft 14 kts 156°
2026-05-06 14:39 53.43369 -6.25656 250 ft 14 kts 156°
2026-05-06 14:39 53.43278 -6.25586 250 ft 14 kts 151°
2026-05-06 14:40 53.43181 -6.25520 250 ft 15 kts 158°
2026-05-06 14:40 53.43087 -6.25455 250 ft 14 kts 157°
2026-05-06 14:40 53.43000 -6.25391 250 ft 13 kts 156°
2026-05-06 14:40 53.42912 -6.25328 250 ft 13 kts 157°
2026-05-06 14:41 53.42827 -6.25267 250 ft 13 kts 157°
2026-05-06 14:41 53.42744 -6.25203 250 ft 12 kts 145°
2026-05-06 14:41 53.42681 -6.25100 250 ft 12 kts 142°
2026-05-06 14:41 53.42603 -6.25035 250 ft 12 kts 156°
2026-05-06 14:42 53.42524 -6.24978 249 ft 12 kts 157°
2026-05-06 14:42 53.42445 -6.24921 249 ft 12 kts 156°
2026-05-06 14:42 53.42371 -6.24856 249 ft 11 kts 131°
2026-05-06 14:42 53.42382 -6.24736 249 ft 11 kts 51°
2026-05-06 14:43 53.42426 -6.24621 249 ft 11 kts 62°
2026-05-06 14:43 53.42415 -6.24505 249 ft 11 kts 133°
2026-05-06 14:43 53.42380 -6.24447 249 ft 1 kts 135°